Time,TemperatureF,DewpointF,PressureIn,WindDirection,WindDirectionDegrees,WindSpeedMPH,WindSpeedGustMPH,Humidity,HourlyPrecipIn,Conditions,Clouds,dailyrainin,SoftwareType,DateUTC
2013-08-19 00:02:00,64.8,63.6,29.72,SE,128,0.0,0.0,96,0.00,,,0.00,Wunderground v.1.15,2013-08-19 05:02:00,
2013-08-19 00:07:00,65.0,63.8,29.72,SE,128,0.0,0.0,96,0.00,,,0.00,Wunderground v.1.15,2013-08-19 05:07:00,
2013-08-19 00:13:00,64.9,63.7,29.72,SE,128,0.0,0.0,96,0.00,,,0.00,Wunderground v.1.15,2013-08-19 05:13:00,
2013-08-19 00:18:00,64.6,63.4,29.72,SE,128,0.0,0.0,96,0.00,,,0.00,Wunderground v.1.15,2013-08-19 05:18:00,
2013-08-19 00:23:00,64.4,63.2,29.72,SE,128,0.0,0.0,96,0.00,,,0.00,Wunderground v.1.15,2013-08-19 05:23:00,
2013-08-19 00:28:00,64.4,63.2,29.72,SE,128,0.0,0.0,96,0.00,,,0.00,Wunderground v.1.15,2013-08-19 05:28:00,
2013-08-19 00:34:00,64.4,63.2,29.72,SSE,158,0.0,0.0,96,0.00,,,0.00,Wunderground v.1.15,2013-08-19 05:34:00,
2013-08-19 00:39:00,64.3,63.1,29.72,SSE,158,0.0,0.0,96,0.00,,,0.00,Wunderground v.1.15,2013-08-19 05:39:00,
2013-08-19 00:44:00,64.2,63.0,29.72,South,179,0.0,0.0,96,0.00,,,0.00,Wunderground v.1.15,2013-08-19 05:44:00,
2013-08-19 00:50:00,64.0,62.8,29.72,South,179,0.0,0.0,96,0.00,,,0.00,Wunderground v.1.15,2013-08-19 05:50:00,
2013-08-19 00:55:00,64.0,62.8,29.71,South,180,0.0,0.0,96,0.00,,,0.00,Wunderground v.1.15,2013-08-19 05:55:00,
2013-08-19 01:00:00,63.9,62.7,29.71,South,179,0.0,0.0,96,0.00,,,0.00,Wunderground v.1.15,2013-08-19 06:00:00,
2013-08-19 01:06:00,63.9,62.7,29.72,South,176,0.0,0.0,96,0.00,,,0.00,Wunderground v.1.15,2013-08-19 06:06:00,
2013-08-19 01:11:00,63.8,62.6,29.71,South,177,0.0,0.0,96,0.00,,,0.00,Wunderground v.1.15,2013-08-19 06:11:00,
2013-08-19 01:16:00,63.6,62.4,29.72,South,179,0.0,0.0,96,0.00,,,0.00,Wunderground v.1.15,2013-08-19 06:16:00,
2013-08-19 01:21:00,63.5,62.3,29.71,South,179,0.0,0.0,96,0.00,,,0.00,Wunderground v.1.15,2013-08-19 06:21:00,
2013-08-19 01:27:00,63.4,62.2,29.71,South,177,0.0,0.0,96,0.00,,,0.00,Wunderground v.1.15,2013-08-19 06:27:00,
2013-08-19 01:32:00,63.3,62.1,29.71,South,179,0.0,0.0,96,0.00,,,0.00,Wunderground v.1.15,2013-08-19 06:32:00,
2013-08-19 01:38:00,63.2,62.0,29.71,South,177,0.0,0.0,96,0.00,,,0.00,Wunderground v.1.15,2013-08-19 06:38:00,
2013-08-19 01:44:00,63.2,62.0,29.71,South,179,0.0,0.0,96,0.00,,,0.00,Wunderground v.1.15,2013-08-19 06:44:00,
2013-08-19 01:49:00,63.1,61.9,29.71,South,179,0.0,0.0,96,0.00,,,0.00,Wunderground v.1.15,2013-08-19 06:49:00,
2013-08-19 01:54:00,63.0,62.1,29.71,South,179,0.0,0.0,97,0.00,,,0.00,Wunderground v.1.15,2013-08-19 06:54:00,
2013-08-19 01:59:00,63.0,62.1,29.71,South,179,0.0,0.0,97,0.00,,,0.00,Wunderground v.1.15,2013-08-19 06:59:00,
2013-08-19 02:04:00,63.1,62.2,29.71,South,179,0.0,0.0,97,0.00,,,0.00,Wunderground v.1.15,2013-08-19 07:04:00,
2013-08-19 02:09:00,63.1,62.2,29.71,South,179,0.0,0.0,97,0.00,,,0.00,Wunderground v.1.15,2013-08-19 07:09:00,
2013-08-19 02:15:00,63.5,62.6,29.71,South,178,0.0,0.0,97,0.00,,,0.00,Wunderground v.1.15,2013-08-19 07:15:00,
2013-08-19 02:20:00,63.4,62.5,29.71,South,178,0.0,0.0,97,0.00,,,0.00,Wunderground v.1.15,2013-08-19 07:20:00,
2013-08-19 02:25:00,63.4,62.5,29.70,South,179,0.0,0.0,97,0.00,,,0.00,Wunderground v.1.15,2013-08-19 07:25:00,
2013-08-19 02:30:00,63.4,62.5,29.71,South,179,0.0,0.0,97,0.00,,,0.00,Wunderground v.1.15,2013-08-19 07:30:00,
2013-08-19 02:35:00,63.7,62.8,29.71,South,179,0.0,0.0,97,0.00,,,0.00,Wunderground v.1.15,2013-08-19 07:35:00,
2013-08-19 02:40:00,64.2,63.3,29.71,South,179,0.0,0.0,97,0.00,,,0.00,Wunderground v.1.15,2013-08-19 07:40:00,
2013-08-19 02:45:00,64.2,63.3,29.71,SSW,194,0.0,0.0,97,0.00,,,0.00,Wunderground v.1.15,2013-08-19 07:45:00,
2013-08-19 02:50:00,64.3,63.4,29.71,SSW,194,0.0,0.0,97,0.00,,,0.00,Wunderground v.1.15,2013-08-19 07:50:00,
2013-08-19 02:55:00,64.2,63.3,29.71,SSW,194,0.0,0.0,97,0.00,,,0.00,Wunderground v.1.15,2013-08-19 07:55:00,
2013-08-19 03:00:00,64.1,63.2,29.71,SSW,195,0.0,0.0,97,0.00,,,0.00,Wunderground v.1.15,2013-08-19 08:00:00,
2013-08-19 03:05:00,64.2,63.3,29.71,ESE,115,0.0,0.0,97,0.00,,,0.00,Wunderground v.1.15,2013-08-19 08:05:00,
2013-08-19 03:10:00,64.4,63.5,29.71,SSE,155,0.0,0.0,97,0.00,,,0.00,Wunderground v.1.15,2013-08-19 08:10:00,
2013-08-19 03:15:00,64.4,63.5,29.71,SE,146,0.0,0.0,97,0.00,,,0.00,Wunderground v.1.15,2013-08-19 08:15:00,
2013-08-19 03:20:00,64.4,63.5,29.71,SE,141,0.0,0.0,97,0.00,,,0.00,Wunderground v.1.15,2013-08-19 08:20:00,
2013-08-19 03:25:00,64.3,63.4,29.71,SE,139,0.0,0.0,97,0.00,,,0.00,Wunderground v.1.15,2013-08-19 08:25:00,
2013-08-19 03:31:00,64.2,63.3,29.71,SE,140,0.0,0.0,97,0.00,,,0.00,Wunderground v.1.15,2013-08-19 08:31:00,
2013-08-19 03:36:00,64.1,63.2,29.71,SE,134,0.0,1.0,97,0.00,,,0.00,Wunderground v.1.15,2013-08-19 08:36:00,
2013-08-19 03:41:00,64.0,63.1,29.71,SE,134,0.0,0.0,97,0.00,,,0.00,Wunderground v.1.15,2013-08-19 08:41:00,
2013-08-19 03:46:00,63.9,63.0,29.71,NE,39,0.0,1.0,97,0.00,,,0.00,Wunderground v.1.15,2013-08-19 08:46:00,
2013-08-19 03:51:00,63.9,63.0,29.71,ENE,59,1.0,2.0,97,0.00,,,0.00,Wunderground v.1.15,2013-08-19 08:51:00,
2013-08-19 03:56:00,64.0,63.1,29.71,North,354,1.0,2.0,97,0.00,,,0.00,Wunderground v.1.15,2013-08-19 08:56:00,
2013-08-19 04:01:00,63.8,62.9,29.71,NNW,337,1.0,2.0,97,0.00,,,0.00,Wunderground v.1.15,2013-08-19 09:01:00,
2013-08-19 04:06:00,63.7,62.8,29.71,NE,50,0.0,3.0,97,0.00,,,0.00,Wunderground v.1.15,2013-08-19 09:06:00,
2013-08-19 04:11:00,63.6,62.7,29.71,North,1,2.0,3.0,97,0.00,,,0.00,Wunderground v.1.15,2013-08-19 09:11:00,
2013-08-19 04:16:00,63.5,62.6,29.71,NE,51,1.0,3.0,97,0.00,,,0.00,Wunderground v.1.15,2013-08-19 09:16:00,
2013-08-19 04:21:00,63.5,62.6,29.71,NNE,13,1.0,2.0,97,0.00,,,0.00,Wunderground v.1.15,2013-08-19 09:21:00,
2013-08-19 04:26:00,63.6,62.7,29.71,North,349,0.0,2.0,97,0.00,,,0.00,Wunderground v.1.15,2013-08-19 09:26:00,
2013-08-19 04:31:00,63.7,62.8,29.71,NNW,338,1.0,1.0,97,0.00,,,0.00,Wunderground v.1.15,2013-08-19 09:31:00,
2013-08-19 04:36:00,63.7,62.8,29.71,NNW,335,0.0,1.0,97,0.00,,,0.00,Wunderground v.1.15,2013-08-19 09:36:00,
2013-08-19 04:41:00,63.8,62.9,29.71,NNW,336,0.0,1.0,97,0.00,,,0.00,Wunderground v.1.15,2013-08-19 09:41:00,
2013-08-19 04:46:00,63.9,63.0,29.71,North,355,1.0,2.0,97,0.00,,,0.00,Wunderground v.1.15,2013-08-19 09:46:00,
2013-08-19 04:51:00,63.9,63.0,29.71,NNW,336,0.0,1.0,97,0.00,,,0.00,Wunderground v.1.15,2013-08-19 09:51:00,
2013-08-19 04:56:00,63.8,62.9,29.71,North,352,0.0,2.0,97,0.00,,,0.00,Wunderground v.1.15,2013-08-19 09:56:00,
2013-08-19 05:02:00,63.9,63.0,29.71,NNW,328,0.0,1.0,97,0.00,,,0.00,Wunderground v.1.15,2013-08-19 10:02:00,
2013-08-19 05:07:00,63.8,62.9,29.71,NNW,329,0.0,1.0,97,0.00,,,0.00,Wunderground v.1.15,2013-08-19 10:07:00,
2013-08-19 05:12:00,63.8,62.9,29.71,WNW,293,0.0,0.0,97,0.00,,,0.00,Wunderground v.1.15,2013-08-19 10:12:00,
2013-08-19 05:17:00,63.8,62.9,29.71,WNW,293,0.0,1.0,97,0.00,,,0.00,Wunderground v.1.15,2013-08-19 10:17:00,
2013-08-19 05:22:00,63.8,62.9,29.72,WNW,293,0.0,0.0,97,0.00,,,0.00,Wunderground v.1.15,2013-08-19 10:22:00,
2013-08-19 05:27:00,63.7,62.8,29.72,WNW,293,0.0,0.0,97,0.00,,,0.00,Wunderground v.1.15,2013-08-19 10:27:00,
2013-08-19 05:32:00,63.6,62.7,29.72,WNW,294,0.0,0.0,97,0.00,,,0.00,Wunderground v.1.15,2013-08-19 10:32:00,
2013-08-19 05:37:00,63.5,62.6,29.71,WNW,294,0.0,1.0,97,0.00,,,0.00,Wunderground v.1.15,2013-08-19 10:37:00,
2013-08-19 05:42:00,63.5,62.6,29.72,WNW,293,0.0,0.0,97,0.00,,,0.00,Wunderground v.1.15,2013-08-19 10:42:00,
2013-08-19 05:47:00,63.5,62.6,29.72,WNW,294,0.0,0.0,97,0.00,,,0.00,Wunderground v.1.15,2013-08-19 10:47:00,
2013-08-19 05:52:00,63.4,62.5,29.72,WNW,294,0.0,0.0,97,0.00,,,0.00,Wunderground v.1.15,2013-08-19 10:52:00,
2013-08-19 05:57:00,63.3,62.4,29.72,WNW,293,0.0,0.0,97,0.00,,,0.00,Wunderground v.1.15,2013-08-19 10:57:00,
2013-08-19 06:02:00,63.3,62.4,29.72,WNW,294,0.0,0.0,97,0.00,,,0.00,Wunderground v.1.15,2013-08-19 11:02:00,
2013-08-19 06:07:00,63.4,62.5,29.72,WNW,294,0.0,0.0,97,0.00,,,0.00,Wunderground v.1.15,2013-08-19 11:07:00,
2013-08-19 06:12:00,63.3,62.4,29.72,WNW,294,0.0,0.0,97,0.00,,,0.00,Wunderground v.1.15,2013-08-19 11:12:00,
2013-08-19 06:17:00,63.3,62.4,29.73,WNW,294,0.0,0.0,97,0.00,,,0.00,Wunderground v.1.15,2013-08-19 11:17:00,
2013-08-19 06:22:00,63.3,62.4,29.73,WNW,294,0.0,0.0,97,0.00,,,0.00,Wunderground v.1.15,2013-08-19 11:22:00,
2013-08-19 06:27:00,63.3,62.4,29.73,WNW,293,0.0,0.0,97,0.00,,,0.00,Wunderground v.1.15,2013-08-19 11:27:00,
2013-08-19 06:32:00,63.4,62.5,29.73,WNW,293,0.0,0.0,97,0.00,,,0.00,Wunderground v.1.15,2013-08-19 11:32:00,
2013-08-19 06:37:00,63.4,62.5,29.73,WNW,294,0.0,0.0,97,0.00,,,0.00,Wunderground v.1.15,2013-08-19 11:37:00,
2013-08-19 06:42:00,63.5,62.6,29.73,WNW,294,0.0,0.0,97,0.00,,,0.00,Wunderground v.1.15,2013-08-19 11:42:00,
2013-08-19 06:47:00,63.7,62.8,29.73,WNW,294,0.0,0.0,97,0.00,,,0.00,Wunderground v.1.15,2013-08-19 11:47:00,
2013-08-19 06:52:00,64.0,63.1,29.73,WNW,294,0.0,0.0,97,0.00,,,0.00,Wunderground v.1.15,2013-08-19 11:52:00,
2013-08-19 06:57:00,64.2,63.3,29.73,ESE,110,0.0,0.0,97,0.00,,,0.00,Wunderground v.1.15,2013-08-19 11:57:00,
2013-08-19 07:02:00,64.4,63.5,29.73,ESE,110,0.0,0.0,97,0.00,,,0.00,Wunderground v.1.15,2013-08-19 12:02:00,
2013-08-19 07:07:00,64.7,63.8,29.73,ESE,110,0.0,0.0,97,0.00,,,0.00,Wunderground v.1.15,2013-08-19 12:07:00,
2013-08-19 07:12:00,65.0,64.1,29.73,ESE,108,0.0,0.0,97,0.00,,,0.00,Wunderground v.1.15,2013-08-19 12:12:00,
2013-08-19 07:17:00,65.3,64.1,29.73,ESE,110,0.0,0.0,96,0.00,,,0.00,Wunderground v.1.15,2013-08-19 12:17:00,
2013-08-19 07:22:00,65.6,64.4,29.73,ESE,110,0.0,0.0,96,0.00,,,0.00,Wunderground v.1.15,2013-08-19 12:22:00,
2013-08-19 07:27:00,66.0,64.8,29.73,ESE,108,0.0,0.0,96,0.00,,,0.00,Wunderground v.1.15,2013-08-19 12:27:00,
2013-08-19 07:32:00,66.4,64.6,29.73,ESE,102,0.0,0.0,94,0.00,,,0.00,Wunderground v.1.15,2013-08-19 12:32:00,
2013-08-19 07:37:00,66.5,64.4,29.73,ENE,59,1.0,2.0,93,0.00,,,0.00,Wunderground v.1.15,2013-08-19 12:37:00,
2013-08-19 07:42:00,66.5,64.7,29.73,NNE,26,2.0,2.0,94,0.00,,,0.00,Wunderground v.1.15,2013-08-19 12:42:00,
2013-08-19 07:47:00,66.4,64.3,29.73,NNE,20,0.0,2.0,93,0.00,,,0.00,Wunderground v.1.15,2013-08-19 12:47:00,
2013-08-19 07:52:00,66.6,64.5,29.73,ENE,68,1.0,1.0,93,0.00,,,0.00,Wunderground v.1.15,2013-08-19 12:52:00,
2013-08-19 07:57:00,66.5,64.1,29.74,ENE,65,0.0,2.0,92,0.00,,,0.00,Wunderground v.1.15,2013-08-19 12:57:00,
2013-08-19 08:02:00,66.3,63.9,29.74,ENE,65,0.0,2.0,92,0.00,,,0.00,Wunderground v.1.15,2013-08-19 13:02:00,
2013-08-19 08:07:00,66.3,63.9,29.74,NNE,17,0.0,3.0,92,0.00,,,0.00,Wunderground v.1.15,2013-08-19 13:07:00,
2013-08-19 08:12:00,66.3,63.9,29.74,NE,56,1.0,3.0,92,0.00,,,0.00,Wunderground v.1.15,2013-08-19 13:12:00,
2013-08-19 08:17:00,66.5,64.1,29.74,East,80,0.0,3.0,92,0.00,,,0.00,Wunderground v.1.15,2013-08-19 13:17:00,
2013-08-19 08:22:00,66.9,64.5,29.74,ENE,72,0.0,0.0,92,0.00,,,0.00,Wunderground v.1.15,2013-08-19 13:22:00,
2013-08-19 08:27:00,67.2,64.5,29.74,ENE,58,1.0,3.0,91,0.00,,,0.00,Wunderground v.1.15,2013-08-19 13:27:00,
2013-08-19 08:32:00,67.2,64.5,29.74,ENE,59,2.0,2.0,91,0.00,,,0.00,Wunderground v.1.15,2013-08-19 13:32:00,
2013-08-19 08:37:00,67.0,64.3,29.74,East,93,0.0,2.0,91,0.00,,,0.00,Wunderground v.1.15,2013-08-19 13:37:00,
2013-08-19 08:42:00,67.2,64.5,29.74,ENE,65,2.0,2.0,91,0.00,,,0.00,Wunderground v.1.15,2013-08-19 13:42:00,
2013-08-19 08:47:00,67.6,64.9,29.74,NE,56,2.0,2.0,91,0.00,,,0.00,Wunderground v.1.15,2013-08-19 13:47:00,
2013-08-19 08:53:00,67.9,64.9,29.74,ENE,70,1.0,2.0,90,0.00,,,0.00,Wunderground v.1.15,2013-08-19 13:53:00,
2013-08-19 08:58:00,68.1,65.4,29.74,ENE,70,0.0,4.0,91,0.00,,,0.00,Wunderground v.1.15,2013-08-19 13:58:00,
2013-08-19 09:03:00,68.8,65.4,29.74,ESE,119,2.0,4.0,89,0.00,,,0.00,Wunderground v.1.15,2013-08-19 14:03:00,
2013-08-19 09:08:00,69.4,65.7,29.75,ESE,106,3.0,4.0,88,0.00,,,0.00,Wunderground v.1.15,2013-08-19 14:08:00,
2013-08-19 09:13:00,69.1,65.4,29.74,SE,129,3.0,4.0,88,0.00,,,0.00,Wunderground v.1.15,2013-08-19 14:13:00,
2013-08-19 09:18:00,69.0,65.3,29.75,SE,124,1.0,6.0,88,0.00,,,0.00,Wunderground v.1.15,2013-08-19 14:18:00,
2013-08-19 09:23:00,68.9,65.5,29.75,SE,128,1.0,4.0,89,0.00,,,0.00,Wunderground v.1.15,2013-08-19 14:23:00,
2013-08-19 09:28:00,69.4,65.7,29.75,East,98,1.0,4.0,88,0.00,,,0.00,Wunderground v.1.15,2013-08-19 14:28:00,
2013-08-19 09:33:00,69.7,65.7,29.75,East,97,2.0,3.0,87,0.00,,,0.00,Wunderground v.1.15,2013-08-19 14:33:00,
2013-08-19 09:38:00,69.6,65.6,29.75,East,101,1.0,4.0,87,0.00,,,0.00,Wunderground v.1.15,2013-08-19 14:38:00,
2013-08-19 09:43:00,70.0,66.0,29.75,ESE,113,1.0,3.0,87,0.00,,,0.00,Wunderground v.1.15,2013-08-19 14:43:00,
2013-08-19 09:48:00,70.4,65.7,29.75,ESE,108,0.0,4.0,85,0.00,,,0.00,Wunderground v.1.15,2013-08-19 14:48:00,
2013-08-19 09:53:00,70.9,65.8,29.75,East,97,2.0,4.0,84,0.00,,,0.00,Wunderground v.1.15,2013-08-19 14:53:00,
2013-08-19 09:58:00,70.9,65.8,29.75,ESE,121,0.0,4.0,84,0.00,,,0.00,Wunderground v.1.15,2013-08-19 14:58:00,
2013-08-19 10:03:00,71.0,65.9,29.75,ESE,105,2.0,4.0,84,0.00,,,0.00,Wunderground v.1.15,2013-08-19 15:03:00,
2013-08-19 10:08:00,71.3,66.2,29.75,ENE,62,2.0,4.0,84,0.00,,,0.00,Wunderground v.1.15,2013-08-19 15:08:00,
2013-08-19 10:13:00,71.8,66.4,29.75,ESE,109,2.0,4.0,83,0.00,,,0.00,Wunderground v.1.15,2013-08-19 15:13:00,
2013-08-19 10:18:00,71.9,66.5,29.75,SE,141,3.0,4.0,83,0.00,,,0.00,Wunderground v.1.15,2013-08-19 15:18:00,
2013-08-19 10:23:00,72.1,66.3,29.75,ESE,111,2.0,4.0,82,0.00,,,0.00,Wunderground v.1.15,2013-08-19 15:23:00,
2013-08-19 10:28:00,72.2,66.4,29.75,East,91,1.0,4.0,82,0.00,,,0.00,Wunderground v.1.15,2013-08-19 15:28:00,
2013-08-19 10:33:00,73.1,66.6,29.75,East,101,1.0,3.0,80,0.00,,,0.00,Wunderground v.1.15,2013-08-19 15:33:00,
2013-08-19 10:38:00,73.3,66.4,29.75,East,94,0.0,4.0,79,0.00,,,0.00,Wunderground v.1.15,2013-08-19 15:38:00,
2013-08-19 10:43:00,73.5,66.2,29.75,ESE,102,0.0,5.0,78,0.00,,,0.00,Wunderground v.1.15,2013-08-19 15:43:00,
2013-08-19 10:48:00,73.7,66.8,29.75,ESE,103,4.0,5.0,79,0.00,,,0.00,Wunderground v.1.15,2013-08-19 15:48:00,
2013-08-19 10:53:00,73.7,66.8,29.75,ENE,74,1.0,4.0,79,0.00,,,0.00,Wunderground v.1.15,2013-08-19 15:53:00,
2013-08-19 10:58:00,74.1,67.2,29.75,South,172,3.0,5.0,79,0.00,,,0.00,Wunderground v.1.15,2013-08-19 15:58:00,
2013-08-19 11:03:00,75.0,67.3,29.75,ESE,111,4.0,5.0,77,0.00,,,0.00,Wunderground v.1.15,2013-08-19 16:03:00,
2013-08-19 11:08:00,74.6,66.9,29.75,East,94,0.0,5.0,77,0.00,,,0.00,Wunderground v.1.15,2013-08-19 16:08:00,
2013-08-19 11:13:00,75.3,67.2,29.75,ESE,116,3.0,4.0,76,0.00,,,0.00,Wunderground v.1.15,2013-08-19 16:13:00,
2013-08-19 11:18:00,74.8,66.3,29.74,SE,133,0.0,4.0,75,0.00,,,0.00,Wunderground v.1.15,2013-08-19 16:18:00,
2013-08-19 11:23:00,75.4,67.3,29.74,ENE,69,0.0,4.0,76,0.00,,,0.00,Wunderground v.1.15,2013-08-19 16:23:00,
2013-08-19 11:28:00,75.2,66.7,29.74,East,98,3.0,6.0,75,0.00,,,0.00,Wunderground v.1.15,2013-08-19 16:28:00,
2013-08-19 11:33:00,75.4,67.3,29.74,East,92,3.0,4.0,76,0.00,,,0.00,Wunderground v.1.15,2013-08-19 16:33:00,
2013-08-19 11:38:00,75.5,66.6,29.74,ESE,115,3.0,6.0,74,0.00,,,0.00,Wunderground v.1.15,2013-08-19 16:38:00,
2013-08-19 11:43:00,75.3,66.8,29.74,ESE,113,2.0,5.0,75,0.00,,,0.00,Wunderground v.1.15,2013-08-19 16:43:00,
2013-08-19 11:48:00,75.8,66.9,29.74,SE,125,3.0,5.0,74,0.00,,,0.00,Wunderground v.1.15,2013-08-19 16:48:00,
2013-08-19 11:53:00,76.2,67.3,29.74,East,93,3.0,4.0,74,0.00,,,0.00,Wunderground v.1.15,2013-08-19 16:53:00,
2013-08-19 11:58:00,75.9,66.6,29.74,East,98,3.0,5.0,73,0.00,,,0.00,Wunderground v.1.15,2013-08-19 16:58:00,
2013-08-19 12:04:00,76.0,67.1,29.74,East,99,1.0,3.0,74,0.00,,,0.00,Wunderground v.1.15,2013-08-19 17:04:00,
2013-08-19 12:09:00,76.2,66.5,29.73,SE,130,2.0,3.0,72,0.00,,,0.00,Wunderground v.1.15,2013-08-19 17:09:00,
2013-08-19 12:14:00,76.2,66.9,29.73,ESE,115,2.0,5.0,73,0.00,,,0.00,Wunderground v.1.15,2013-08-19 17:14:00,
2013-08-19 12:19:00,76.7,66.6,29.73,East,94,0.0,5.0,71,0.00,,,0.00,Wunderground v.1.15,2013-08-19 17:19:00,
2013-08-19 12:24:00,77.1,66.6,29.73,East,91,2.0,3.0,70,0.00,,,0.00,Wunderground v.1.15,2013-08-19 17:24:00,
2013-08-19 12:29:00,76.9,66.0,29.73,SE,131,1.0,6.0,69,0.00,,,0.00,Wunderground v.1.15,2013-08-19 17:29:00,
2013-08-19 12:34:00,77.0,65.6,29.73,East,97,3.0,7.0,68,0.00,,,0.00,Wunderground v.1.15,2013-08-19 17:34:00,
2013-08-19 12:39:00,76.7,65.8,29.72,ESE,105,2.0,7.0,69,0.00,,,0.00,Wunderground v.1.15,2013-08-19 17:39:00,
2013-08-19 12:44:00,76.6,66.1,29.72,East,98,0.0,4.0,70,0.00,,,0.00,Wunderground v.1.15,2013-08-19 17:44:00,
2013-08-19 12:49:00,76.7,66.2,29.72,ESE,115,2.0,4.0,70,0.00,,,0.00,Wunderground v.1.15,2013-08-19 17:49:00,
2013-08-19 12:54:00,76.8,66.3,29.72,ESE,104,2.0,4.0,70,0.00,,,0.00,Wunderground v.1.15,2013-08-19 17:54:00,
2013-08-19 12:59:00,76.4,65.9,29.72,East,88,3.0,5.0,70,0.00,,,0.00,Wunderground v.1.15,2013-08-19 17:59:00,
2013-08-19 13:04:00,76.5,66.0,29.72,ESE,118,3.0,5.0,70,0.00,,,0.00,Wunderground v.1.15,2013-08-19 18:04:00,
2013-08-19 13:09:00,76.5,66.8,29.71,SE,139,0.0,5.0,72,0.00,,,0.00,Wunderground v.1.15,2013-08-19 18:09:00,
2013-08-19 13:14:00,76.8,66.7,29.71,NE,46,2.0,5.0,71,0.00,,,0.00,Wunderground v.1.15,2013-08-19 18:14:00,
2013-08-19 13:19:00,76.2,65.7,29.71,ENE,76,1.0,7.0,70,0.00,,,0.00,Wunderground v.1.15,2013-08-19 18:19:00,
2013-08-19 13:24:00,76.4,65.5,29.71,ESE,103,0.0,8.0,69,0.00,,,0.00,Wunderground v.1.15,2013-08-19 18:24:00,
2013-08-19 13:29:00,76.3,65.8,29.70,ENE,59,1.0,8.0,70,0.00,,,0.00,Wunderground v.1.15,2013-08-19 18:29:00,
2013-08-19 13:34:00,76.7,66.2,29.70,NNE,20,1.0,4.0,70,0.00,,,0.00,Wunderground v.1.15,2013-08-19 18:34:00,
2013-08-19 13:39:00,77.6,66.6,29.70,ENE,72,1.0,4.0,69,0.00,,,0.00,Wunderground v.1.15,2013-08-19 18:39:00,
2013-08-19 13:44:00,78.4,66.1,29.71,SSE,155,2.0,4.0,66,0.00,,,0.00,Wunderground v.1.15,2013-08-19 18:44:00,
2013-08-19 13:49:00,78.9,66.6,29.70,ESE,103,2.0,4.0,66,0.00,,,0.00,Wunderground v.1.15,2013-08-19 18:49:00,
2013-08-19 13:54:00,78.3,66.0,29.70,ENE,69,1.0,6.0,66,0.00,,,0.00,Wunderground v.1.15,2013-08-19 18:54:00,
2013-08-19 13:59:00,78.1,65.8,29.70,NE,39,2.0,6.0,66,0.00,,,0.00,Wunderground v.1.15,2013-08-19 18:59:00,
2013-08-19 14:04:00,78.1,65.4,29.70,NNW,343,2.0,6.0,65,0.00,,,0.00,Wunderground v.1.15,2013-08-19 19:04:00,
2013-08-19 14:09:00,78.1,66.2,29.70,NE,52,4.0,7.0,67,0.00,,,0.00,Wunderground v.1.15,2013-08-19 19:09:00,
2013-08-19 14:14:00,78.9,66.6,29.70,East,91,2.0,4.0,66,0.00,,,0.00,Wunderground v.1.15,2013-08-19 19:14:00,
2013-08-19 14:19:00,79.8,66.5,29.70,East,83,1.0,5.0,64,0.00,,,0.00,Wunderground v.1.15,2013-08-19 19:19:00,
2013-08-19 14:24:00,79.7,66.4,29.70,North,353,1.0,3.0,64,0.00,,,0.00,Wunderground v.1.15,2013-08-19 19:24:00,
2013-08-19 14:29:00,78.9,66.1,29.70,NNW,347,1.0,7.0,65,0.00,,,0.00,Wunderground v.1.15,2013-08-19 19:29:00,
2013-08-19 14:34:00,78.3,66.4,29.70,NNE,14,3.0,6.0,67,0.00,,,0.00,Wunderground v.1.15,2013-08-19 19:34:00,
2013-08-19 14:39:00,78.0,67.0,29.70,SE,131,2.0,6.0,69,0.00,,,0.00,Wunderground v.1.15,2013-08-19 19:39:00,
2013-08-19 14:44:00,78.6,68.0,29.70,NE,49,1.0,4.0,70,0.00,,,0.00,Wunderground v.1.15,2013-08-19 19:44:00,
2013-08-19 14:49:00,78.5,67.1,29.69,ESE,106,0.0,4.0,68,0.00,,,0.00,Wunderground v.1.15,2013-08-19 19:49:00,
2013-08-19 14:54:00,78.2,67.2,29.69,NNE,32,4.0,5.0,69,0.00,,,0.00,Wunderground v.1.15,2013-08-19 19:54:00,
2013-08-19 14:59:00,78.2,67.2,29.69,ENE,67,0.0,5.0,69,0.00,,,0.00,Wunderground v.1.15,2013-08-19 19:59:00,
2013-08-19 15:04:00,78.1,67.1,29.69,NNW,345,3.0,6.0,69,0.00,,,0.00,Wunderground v.1.15,2013-08-19 20:04:00,
2013-08-19 15:09:00,77.9,66.5,29.69,NE,49,3.0,6.0,68,0.00,,,0.00,Wunderground v.1.15,2013-08-19 20:09:00,
2013-08-19 15:14:00,78.1,67.1,29.68,North,354,0.0,5.0,69,0.00,,,0.00,Wunderground v.1.15,2013-08-19 20:14:00,
2013-08-19 15:19:00,79.1,66.3,29.68,ESE,103,3.0,5.0,65,0.00,,,0.00,Wunderground v.1.15,2013-08-19 20:19:00,
2013-08-19 15:24:00,79.3,66.5,29.68,ESE,109,3.0,4.0,65,0.00,,,0.00,Wunderground v.1.15,2013-08-19 20:24:00,
2013-08-19 15:29:00,79.5,66.7,29.68,SE,125,3.0,4.0,65,0.00,,,0.00,Wunderground v.1.15,2013-08-19 20:29:00,
2013-08-19 15:34:00,79.0,66.7,29.68,NNE,33,4.0,4.0,66,0.00,,,0.00,Wunderground v.1.15,2013-08-19 20:34:00,
2013-08-19 15:39:00,78.9,66.6,29.68,ESE,103,1.0,4.0,66,0.00,,,0.00,Wunderground v.1.15,2013-08-19 20:39:00,
2013-08-19 15:44:00,78.8,66.5,29.68,North,8,2.0,4.0,66,0.00,,,0.00,Wunderground v.1.15,2013-08-19 20:44:00,
2013-08-19 15:49:00,78.5,67.1,29.68,North,11,1.0,4.0,68,0.00,,,0.00,Wunderground v.1.15,2013-08-19 20:49:00,
2013-08-19 15:54:00,78.4,66.5,29.68,NNW,334,2.0,3.0,67,0.00,,,0.00,Wunderground v.1.15,2013-08-19 20:54:00,
2013-08-19 15:59:00,78.2,65.5,29.68,NNE,23,0.0,4.0,65,0.00,,,0.00,Wunderground v.1.15,2013-08-19 20:59:00,
2013-08-19 16:04:00,78.3,66.0,29.68,North,5,0.0,2.0,66,0.00,,,0.00,Wunderground v.1.15,2013-08-19 21:04:00,
2013-08-19 16:09:00,78.8,65.6,29.68,North,350,2.0,3.0,64,0.00,,,0.00,Wunderground v.1.15,2013-08-19 21:09:00,
2013-08-19 16:14:00,78.7,65.0,29.67,North,6,2.0,4.0,63,0.00,,,0.00,Wunderground v.1.15,2013-08-19 21:14:00,
2013-08-19 16:19:00,78.7,65.5,29.67,NE,49,2.0,4.0,64,0.00,,,0.00,Wunderground v.1.15,2013-08-19 21:19:00,
2013-08-19 16:24:00,78.7,65.9,29.67,NNW,345,2.0,3.0,65,0.00,,,0.00,Wunderground v.1.15,2013-08-19 21:24:00,
2013-08-19 16:29:00,78.6,64.9,29.67,North,4,0.0,5.0,63,0.00,,,0.00,Wunderground v.1.15,2013-08-19 21:29:00,
2013-08-19 16:34:00,78.5,65.8,29.67,NNE,22,1.0,4.0,65,0.00,,,0.00,Wunderground v.1.15,2013-08-19 21:34:00,
2013-08-19 16:39:00,78.9,65.2,29.67,NNW,330,2.0,4.0,63,0.00,,,0.00,Wunderground v.1.15,2013-08-19 21:39:00,
2013-08-19 16:44:00,78.8,65.6,29.67,ENE,59,2.0,4.0,64,0.00,,,0.00,Wunderground v.1.15,2013-08-19 21:44:00,
2013-08-19 16:49:00,78.4,65.7,29.67,NE,47,1.0,4.0,65,0.00,,,0.00,Wunderground v.1.15,2013-08-19 21:49:00,
2013-08-19 16:54:00,78.4,66.1,29.67,NE,55,0.0,2.0,66,0.00,,,0.00,Wunderground v.1.15,2013-08-19 21:54:00,
2013-08-19 16:59:00,78.3,65.6,29.67,North,353,0.0,2.0,65,0.00,,,0.00,Wunderground v.1.15,2013-08-19 21:59:00,
2013-08-19 17:04:00,78.1,65.8,29.67,NE,49,0.0,0.0,66,0.00,,,0.00,Wunderground v.1.15,2013-08-19 22:04:00,
2013-08-19 17:09:00,78.0,67.0,29.67,NE,49,0.0,0.0,69,0.00,,,0.00,Wunderground v.1.15,2013-08-19 22:09:00,
2013-08-19 17:14:00,78.0,67.0,29.67,NE,49,0.0,3.0,69,0.00,,,0.00,Wunderground v.1.15,2013-08-19 22:14:00,
2013-08-19 17:19:00,78.4,66.1,29.67,North,352,1.0,4.0,66,0.00,,,0.00,Wunderground v.1.15,2013-08-19 22:19:00,
2013-08-19 17:24:00,78.3,66.0,29.67,NNW,346,2.0,4.0,66,0.00,,,0.00,Wunderground v.1.15,2013-08-19 22:24:00,
2013-08-19 17:29:00,78.2,65.9,29.67,NNE,14,4.0,4.0,66,0.00,,,0.00,Wunderground v.1.15,2013-08-19 22:29:00,
2013-08-19 17:34:00,79.1,66.3,29.67,NNW,345,1.0,3.0,65,0.00,,,0.00,Wunderground v.1.15,2013-08-19 22:34:00,
2013-08-19 17:39:00,79.0,66.2,29.66,NE,41,0.0,3.0,65,0.00,,,0.00,Wunderground v.1.15,2013-08-19 22:39:00,
2013-08-19 17:44:00,78.9,66.1,29.66,ENE,65,0.0,2.0,65,0.00,,,0.00,Wunderground v.1.15,2013-08-19 22:44:00,
2013-08-19 17:49:00,78.9,66.1,29.66,North,1,2.0,3.0,65,0.00,,,0.00,Wunderground v.1.15,2013-08-19 22:49:00,
2013-08-19 17:54:00,78.9,66.1,29.66,North,10,1.0,3.0,65,0.00,,,0.00,Wunderground v.1.15,2013-08-19 22:54:00,
2013-08-19 18:00:00,78.8,66.5,29.66,East,87,1.0,1.0,66,0.00,,,0.00,Wunderground v.1.15,2013-08-19 23:00:00,
2013-08-19 18:05:00,78.6,66.3,29.65,ESE,113,1.0,2.0,66,0.00,,,0.00,Wunderground v.1.15,2013-08-19 23:05:00,
2013-08-19 18:10:00,78.3,66.4,29.65,NE,49,0.0,1.0,67,0.00,,,0.00,Wunderground v.1.15,2013-08-19 23:10:00,
2013-08-19 18:15:00,78.3,66.4,29.65,East,95,0.0,1.0,67,0.00,,,0.00,Wunderground v.1.15,2013-08-19 23:15:00,
2013-08-19 18:20:00,78.5,66.6,29.65,East,81,0.0,0.0,67,0.00,,,0.00,Wunderground v.1.15,2013-08-19 23:20:00,
2013-08-19 18:25:00,78.5,66.6,29.65,ENE,72,1.0,1.0,67,0.00,,,0.00,Wunderground v.1.15,2013-08-19 23:25:00,
2013-08-19 18:30:00,78.3,66.4,29.65,ENE,60,0.0,0.0,67,0.00,,,0.00,Wunderground v.1.15,2013-08-19 23:30:00,
2013-08-19 18:35:00,77.9,66.1,29.65,NE,46,2.0,2.0,67,0.00,,,0.00,Wunderground v.1.15,2013-08-19 23:35:00,
2013-08-19 18:40:00,77.7,66.7,29.65,ENE,61,2.0,2.0,69,0.00,,,0.00,Wunderground v.1.15,2013-08-19 23:40:00,
2013-08-19 18:45:00,77.4,66.4,29.65,ENE,58,1.0,2.0,69,0.00,,,0.00,Wunderground v.1.15,2013-08-19 23:45:00,
2013-08-19 18:50:00,77.3,66.7,29.65,NE,56,1.0,1.0,70,0.00,,,0.00,Wunderground v.1.15,2013-08-19 23:50:00,
2013-08-19 18:55:00,77.1,68.2,29.65,NE,44,0.0,2.0,74,0.00,,,0.00,Wunderground v.1.15,2013-08-19 23:55:00,
2013-08-19 19:00:00,77.0,66.9,29.65,NE,44,1.0,2.0,71,0.00,,,0.00,Wunderground v.1.15,2013-08-20 00:00:00,
2013-08-19 19:05:00,76.9,67.2,29.66,North,9,0.0,2.0,72,0.00,,,0.00,Wunderground v.1.15,2013-08-20 00:05:00,
2013-08-19 19:10:00,76.9,67.6,29.66,NNE,25,0.0,0.0,73,0.00,,,0.00,Wunderground v.1.15,2013-08-20 00:10:00,
2013-08-19 19:15:00,76.8,68.3,29.66,NNE,30,0.0,0.0,75,0.00,,,0.00,Wunderground v.1.15,2013-08-20 00:15:00,
2013-08-19 19:20:00,76.4,67.9,29.66,NNE,32,0.0,0.0,75,0.00,,,0.00,Wunderground v.1.15,2013-08-20 00:20:00,
2013-08-19 19:25:00,76.0,67.1,29.66,NNE,32,0.0,0.0,74,0.00,,,0.00,Wunderground v.1.15,2013-08-20 00:25:00,
2013-08-19 19:30:00,75.6,67.1,29.66,NNE,32,0.0,0.0,75,0.00,,,0.00,Wunderground v.1.15,2013-08-20 00:30:00,
2013-08-19 19:35:00,75.3,68.0,29.66,NNE,32,0.0,0.0,78,0.00,,,0.00,Wunderground v.1.15,2013-08-20 00:35:00,
2013-08-19 19:40:00,74.9,67.9,29.66,NE,43,0.0,0.0,79,0.00,,,0.00,Wunderground v.1.15,2013-08-20 00:40:00,
2013-08-19 19:45:00,74.4,68.2,29.66,NE,39,0.0,0.0,81,0.00,,,0.00,Wunderground v.1.15,2013-08-20 00:45:00,
2013-08-19 19:50:00,74.1,67.9,29.66,NE,38,0.0,0.0,81,0.00,,,0.00,Wunderground v.1.15,2013-08-20 00:50:00,
2013-08-19 19:55:00,73.7,67.5,29.66,NE,38,0.0,0.0,81,0.00,,,0.00,Wunderground v.1.15,2013-08-20 00:55:00,
2013-08-19 20:00:00,73.5,67.3,29.66,NE,38,0.0,0.0,81,0.00,,,0.00,Wunderground v.1.15,2013-08-20 01:00:00,
2013-08-19 20:05:00,73.4,67.6,29.66,NE,39,0.0,0.0,82,0.00,,,0.00,Wunderground v.1.15,2013-08-20 01:05:00,
2013-08-19 20:10:00,73.2,67.4,29.66,NNE,26,0.0,0.0,82,0.00,,,0.00,Wunderground v.1.15,2013-08-20 01:10:00,
2013-08-19 20:15:00,73.0,67.5,29.67,NNE,26,0.0,0.0,83,0.00,,,0.00,Wunderground v.1.15,2013-08-20 01:15:00,
2013-08-19 20:20:00,73.0,67.9,29.67,NNE,25,0.0,0.0,84,0.00,,,0.00,Wunderground v.1.15,2013-08-20 01:20:00,
2013-08-19 20:25:00,72.9,67.4,29.67,NNE,26,0.0,0.0,83,0.00,,,0.00,Wunderground v.1.15,2013-08-20 01:25:00,
2013-08-19 20:30:00,72.8,67.3,29.67,North,351,0.0,0.0,83,0.00,,,0.00,Wunderground v.1.15,2013-08-20 01:30:00,
2013-08-19 20:35:00,72.8,67.3,29.67,North,353,0.0,0.0,83,0.00,,,0.00,Wunderground v.1.15,2013-08-20 01:35:00,
2013-08-19 20:40:00,72.6,67.5,29.67,North,352,0.0,0.0,84,0.00,,,0.00,Wunderground v.1.15,2013-08-20 01:40:00,
2013-08-19 20:45:00,72.5,67.4,29.67,North,352,0.0,0.0,84,0.00,,,0.00,Wunderground v.1.15,2013-08-20 01:45:00,
2013-08-19 20:50:00,72.3,67.5,29.67,NNE,32,0.0,0.0,85,0.00,,,0.00,Wunderground v.1.15,2013-08-20 01:50:00,
2013-08-19 20:55:00,72.1,67.7,29.67,NNE,32,0.0,0.0,86,0.00,,,0.00,Wunderground v.1.15,2013-08-20 01:55:00,
2013-08-19 21:00:00,71.9,67.5,29.68,NE,37,0.0,0.0,86,0.00,,,0.00,Wunderground v.1.15,2013-08-20 02:00:00,
2013-08-19 21:05:00,71.7,67.6,29.68,NE,37,0.0,0.0,87,0.00,,,0.00,Wunderground v.1.15,2013-08-20 02:05:00,
2013-08-19 21:10:00,71.4,67.3,29.68,NE,37,0.0,0.0,87,0.00,,,0.00,Wunderground v.1.15,2013-08-20 02:10:00,
2013-08-19 21:15:00,71.3,67.9,29.68,ENE,67,0.0,0.0,89,0.00,,,0.00,Wunderground v.1.15,2013-08-20 02:15:00,
2013-08-19 21:20:00,71.0,67.3,29.68,ENE,66,0.0,0.0,88,0.00,,,0.00,Wunderground v.1.15,2013-08-20 02:20:00,
2013-08-19 21:25:00,70.9,67.5,29.68,ENE,66,0.0,0.0,89,0.00,,,0.00,Wunderground v.1.15,2013-08-20 02:25:00,
2013-08-19 21:30:00,70.8,67.4,29.68,ENE,65,0.0,0.0,89,0.00,,,0.00,Wunderground v.1.15,2013-08-20 02:30:00,
2013-08-19 21:35:00,70.6,67.2,29.68,ENE,65,0.0,0.0,89,0.00,,,0.00,Wunderground v.1.15,2013-08-20 02:35:00,
2013-08-19 21:40:00,70.5,67.1,29.68,ENE,65,0.0,0.0,89,0.00,,,0.00,Wunderground v.1.15,2013-08-20 02:40:00,
2013-08-19 21:46:00,70.2,66.8,29.68,ENE,63,0.0,0.0,89,0.00,,,0.00,Wunderground v.1.15,2013-08-20 02:46:00,
2013-08-19 21:51:00,70.2,67.1,29.68,ENE,70,0.0,0.0,90,0.00,,,0.00,Wunderground v.1.15,2013-08-20 02:51:00,
2013-08-19 21:56:00,70.0,66.9,29.68,ENE,70,0.0,0.0,90,0.00,,,0.00,Wunderground v.1.15,2013-08-20 02:56:00,
2013-08-19 22:01:00,69.8,66.7,29.68,ENE,70,0.0,0.0,90,0.00,,,0.00,Wunderground v.1.15,2013-08-20 03:01:00,
2013-08-19 22:06:00,69.6,66.9,29.69,ENE,70,0.0,0.0,91,0.00,,,0.00,Wunderground v.1.15,2013-08-20 03:06:00,
2013-08-19 22:11:00,69.6,67.2,29.68,ENE,75,0.0,0.0,92,0.00,,,0.00,Wunderground v.1.15,2013-08-20 03:11:00,
2013-08-19 22:16:00,69.7,67.3,29.68,ENE,75,0.0,0.0,92,0.00,,,0.00,Wunderground v.1.15,2013-08-20 03:16:00,
2013-08-19 22:21:00,69.6,67.2,29.68,ENE,75,0.0,0.0,92,0.00,,,0.00,Wunderground v.1.15,2013-08-20 03:21:00,
2013-08-19 22:26:00,69.6,67.5,29.68,ENE,75,0.0,0.0,93,0.00,,,0.00,Wunderground v.1.15,2013-08-20 03:26:00,
2013-08-19 22:31:00,69.5,67.1,29.68,ENE,76,0.0,0.0,92,0.00,,,0.00,Wunderground v.1.15,2013-08-20 03:31:00,
2013-08-19 22:36:00,69.3,66.9,29.68,ENE,76,0.0,0.0,92,0.00,,,0.00,Wunderground v.1.15,2013-08-20 03:36:00,
2013-08-19 22:41:00,69.3,66.9,29.69,ENE,75,0.0,0.0,92,0.00,,,0.00,Wunderground v.1.15,2013-08-20 03:41:00,
2013-08-19 22:46:00,69.1,66.7,29.69,ENE,76,0.0,0.0,92,0.00,,,0.00,Wunderground v.1.15,2013-08-20 03:46:00,
2013-08-19 22:51:00,69.1,67.0,29.69,ENE,74,0.0,0.0,93,0.00,,,0.00,Wunderground v.1.15,2013-08-20 03:51:00,
2013-08-19 22:56:00,69.0,66.9,29.69,ENE,75,0.0,0.0,93,0.00,,,0.00,Wunderground v.1.15,2013-08-20 03:56:00,
2013-08-19 23:01:00,68.9,66.8,29.69,ENE,75,0.0,0.0,93,0.00,,,0.00,Wunderground v.1.15,2013-08-20 04:01:00,
2013-08-19 23:06:00,68.7,66.3,29.69,ENE,75,0.0,0.0,92,0.00,,,0.00,Wunderground v.1.15,2013-08-20 04:06:00,
2013-08-19 23:11:00,68.6,66.5,29.69,ENE,74,0.0,0.0,93,0.00,,,0.00,Wunderground v.1.15,2013-08-20 04:11:00,
2013-08-19 23:16:00,68.7,66.9,29.69,ENE,73,0.0,0.0,94,0.00,,,0.00,Wunderground v.1.15,2013-08-20 04:16:00,
2013-08-19 23:21:00,68.9,67.1,29.69,WNW,288,0.0,0.0,94,0.00,,,0.00,Wunderground v.1.15,2013-08-20 04:21:00,
2013-08-19 23:26:00,68.9,66.8,29.69,WNW,288,0.0,0.0,93,0.00,,,0.00,Wunderground v.1.15,2013-08-20 04:26:00,
2013-08-19 23:31:00,68.8,66.7,29.69,WNW,288,0.0,0.0,93,0.00,,,0.00,Wunderground v.1.15,2013-08-20 04:31:00,
2013-08-19 23:36:00,68.7,66.9,29.69,NNE,26,0.0,0.0,94,0.00,,,0.00,Wunderground v.1.15,2013-08-20 04:36:00,
2013-08-19 23:41:00,68.7,66.9,29.69,NNE,23,0.0,0.0,94,0.00,,,0.00,Wunderground v.1.15,2013-08-20 04:41:00,
2013-08-19 23:46:00,68.5,66.7,29.69,NNE,23,0.0,0.0,94,0.00,,,0.00,Wunderground v.1.15,2013-08-20 04:46:00,
2013-08-19 23:51:00,68.5,66.7,29.69,NNE,23,0.0,0.0,94,0.00,,,0.00,Wunderground v.1.15,2013-08-20 04:51:00,
2013-08-19 23:56:00,68.4,66.6,29.69,NNE,23,0.0,0.0,94,0.00,,,0.00,Wunderground v.1.15,2013-08-20 04:56:00,